LTU225 LGIR-EDDL

Flight info

Callsign LTU225
Flight time 3h 4m
Altitude 36000
Route EPALO M749 DIRMI UL613 YNN UL604 DIMIS/N0469F380 DCT RETRA DCT PETOV DCT LAMSI L604 RODIS DCT TESDU DCT AMETU T852 TINSA T854 DOMUX DOMUX1A
Aircraft L101/H-SDFGHIRWXY/S

Departure

Time 2026-05-06 09:33
Airport Heraklion International Nikos Kazantzakis Airport (LGIR)

Arrival

Time 2026-05-06 12:37
Airport Düsseldorf Airport (EDDL)
Time Latitude Longitude Altitude Speed Heading
2026-05-06 08:59 35.33812 25.17425 99 ft 0 kts 317°
2026-05-06 09:28 35.33813 25.17424 96 ft 1 kts 317°
2026-05-06 09:28 35.33837 25.17400 98 ft 7 kts 327°
2026-05-06 09:28 35.33901 25.17394 96 ft 11 kts 34°
2026-05-06 09:28 35.33913 25.17494 96 ft 14 kts 94°
2026-05-06 09:29 35.33903 25.17633 97 ft 18 kts 95°
2026-05-06 09:29 35.33891 25.17802 97 ft 22 kts 94°
2026-05-06 09:29 35.33881 25.18001 98 ft 25 kts 92°
2026-05-06 09:29 35.33864 25.18221 99 ft 27 kts 97°
2026-05-06 09:30 35.33845 25.18464 98 ft 29 kts 94°
2026-05-06 09:30 35.33828 25.18714 95 ft 30 kts 95°
2026-05-06 09:30 35.33820 25.18915 96 ft 18 kts 72°
2026-05-06 09:30 35.33876 25.19037 97 ft 10 kts 76°
2026-05-06 09:31 35.33898 25.19050 98 ft 2 kts 340°
2026-05-06 09:31 35.33904 25.19036 98 ft 2 kts 278°
2026-05-06 09:31 35.33904 25.19033 98 ft 0 kts 275°
2026-05-06 09:32 35.33923 25.18781 94 ft 76 kts 274°
2026-05-06 09:32 35.33993 25.17766 98 ft 159 kts 276°
2026-05-06 09:32 35.34097 25.16239 664 ft 186 kts 276°
2026-05-06 09:33 35.34381 25.14680 1751 ft 197 kts 298°
2026-05-06 09:33 35.35352 25.13510 2736 ft 189 kts 327°
2026-05-06 09:33 35.36458 25.12861 3300 ft 173 kts 336°
2026-05-06 09:33 35.37503 25.12170 4281 ft 169 kts 324°
2026-05-06 09:34 35.38416 25.11159 5143 ft 187 kts 314°
2026-05-06 09:34 35.39329 25.09873 5714 ft 216 kts 310°
2026-05-06 09:34 35.40280 25.08402 6169 ft 221 kts 309°
2026-05-06 09:34 35.41192 25.06935 7076 ft 215 kts 309°
2026-05-06 09:35 35.42092 25.05477 7931 ft 218 kts 309°
2026-05-06 09:35 35.43017 25.03980 8840 ft 219 kts 308°
2026-05-06 09:35 35.43931 25.02501 9650 ft 222 kts 308°
2026-05-06 09:35 35.44989 25.01107 10344 ft 227 kts 318°
2026-05-06 09:36 35.46199 24.99825 11052 ft 230 kts 321°
2026-05-06 09:36 35.47444 24.98579 11881 ft 232 kts 321°
2026-05-06 09:36 35.48763 24.97287 12108 ft 257 kts 322°
2026-05-06 09:36 35.50241 24.95868 12313 ft 282 kts 322°
2026-05-06 09:37 35.51871 24.94358 12439 ft 306 kts 323°
2026-05-06 09:37 35.53655 24.92753 12559 ft 328 kts 323°
2026-05-06 09:37 35.55558 24.91066 12682 ft 347 kts 324°
2026-05-06 09:37 35.57569 24.89293 12814 ft 364 kts 324°
2026-05-06 09:38 35.59669 24.87446 13086 ft 375 kts 324°
2026-05-06 09:38 35.61786 24.85585 13868 ft 371 kts 324°
2026-05-06 09:38 35.63890 24.83735 14330 ft 376 kts 324°
2026-05-06 09:38 35.65998 24.81880 14852 ft 377 kts 324°
2026-05-06 09:39 35.68142 24.79991 15371 ft 380 kts 324°
2026-05-06 09:39 35.70300 24.78089 15911 ft 383 kts 324°
2026-05-06 09:39 35.72472 24.76172 16460 ft 385 kts 324°
2026-05-06 09:39 35.74656 24.74243 17013 ft 388 kts 324°
2026-05-06 09:40 35.76864 24.72291 17564 ft 391 kts 324°
2026-05-06 09:40 35.79084 24.70327 18117 ft 394 kts 324°
2026-05-06 09:40 35.83578 24.66347 19175 ft 400 kts 323°
2026-05-06 09:41 35.85844 24.64337 19689 ft 402 kts 323°
2026-05-06 09:41 35.88124 24.62314 20213 ft 405 kts 323°
2026-05-06 09:41 35.90418 24.60275 20743 ft 408 kts 323°
2026-05-06 09:41 35.92729 24.58220 21294 ft 411 kts 323°
2026-05-06 09:42 35.95057 24.56147 21858 ft 414 kts 323°
2026-05-06 09:42 35.97401 24.54058 22421 ft 417 kts 323°
2026-05-06 09:42 35.99767 24.51947 23002 ft 421 kts 323°
2026-05-06 09:42 36.02146 24.49824 23577 ft 424 kts 323°
2026-05-06 09:43 36.04544 24.47681 24069 ft 427 kts 323°
2026-05-06 09:43 36.06961 24.45519 24577 ft 429 kts 323°
2026-05-06 09:43 36.09352 24.43379 25043 ft 432 kts 323°
2026-05-06 09:43 36.11796 24.41190 25422 ft 437 kts 323°
2026-05-06 09:44 36.14288 24.38955 25552 ft 448 kts 323°
2026-05-06 09:44 36.16840 24.36662 25653 ft 458 kts 323°
2026-05-06 09:44 36.19438 24.34327 25887 ft 464 kts 323°
2026-05-06 09:44 36.22045 24.31984 26460 ft 462 kts 323°
2026-05-06 09:45 36.24642 24.29649 27054 ft 461 kts 323°
2026-05-06 09:45 36.27232 24.27319 27651 ft 459 kts 323°
2026-05-06 09:45 36.29819 24.24990 28267 ft 458 kts 323°
2026-05-06 09:45 36.32388 24.22674 28878 ft 457 kts 323°
2026-05-06 09:46 36.34958 24.20356 29535 ft 455 kts 323°
2026-05-06 09:46 36.37505 24.18056 30269 ft 452 kts 323°
2026-05-06 09:46 36.40041 24.15764 30840 ft 450 kts 323°
2026-05-06 09:46 36.42560 24.13487 31450 ft 447 kts 323°
2026-05-06 09:47 36.45067 24.11217 32081 ft 445 kts 323°
2026-05-06 09:47 36.47562 24.08958 32682 ft 443 kts 323°
2026-05-06 09:47 36.50015 24.06733 33308 ft 441 kts 322°
2026-05-06 09:47 36.52524 24.04454 33773 ft 442 kts 322°
2026-05-06 09:48 36.55003 24.02200 34386 ft 441 kts 322°
2026-05-06 09:48 36.57441 23.99982 34972 ft 438 kts 322°
2026-05-06 09:48 36.59894 23.97749 35551 ft 436 kts 322°
2026-05-06 09:48 36.62355 23.95508 35879 ft 423 kts 322°
2026-05-06 09:49 36.64695 23.93377 36048 ft 418 kts 322°
2026-05-06 09:49 36.67048 23.91227 36135 ft 433 kts 322°
2026-05-06 09:49 36.71966 23.86718 36104 ft 441 kts 322°
2026-05-06 09:50 36.76902 23.82190 36110 ft 441 kts 322°
2026-05-06 09:50 36.81844 23.77652 36107 ft 441 kts 322°
2026-05-06 09:51 36.86785 23.73108 36100 ft 441 kts 322°
2026-05-06 09:51 36.91745 23.68535 36111 ft 444 kts 322°
2026-05-06 09:52 36.96708 23.63953 36105 ft 443 kts 322°
2026-05-06 09:52 37.01664 23.59370 36101 ft 443 kts 322°
2026-05-06 09:53 37.06610 23.54788 36105 ft 443 kts 321°
2026-05-06 09:53 37.11568 23.50187 36103 ft 443 kts 321°
2026-05-06 09:54 37.16516 23.45587 36102 ft 443 kts 321°
2026-05-06 09:54 37.21464 23.40979 36097 ft 442 kts 321°
2026-05-06 09:55 37.26366 23.36407 36103 ft 442 kts 321°
2026-05-06 09:55 37.31307 23.31790 36104 ft 442 kts 321°
2026-05-06 09:56 37.36247 23.27165 36099 ft 442 kts 321°
2026-05-06 09:56 37.41181 23.22539 36098 ft 442 kts 321°
2026-05-06 09:57 37.46113 23.17903 36112 ft 442 kts 321°
2026-05-06 09:57 37.51027 23.13277 36097 ft 441 kts 321°
2026-05-06 09:58 37.55945 23.08641 36086 ft 441 kts 321°
2026-05-06 09:58 37.60864 23.03993 36092 ft 443 kts 321°
2026-05-06 09:59 37.65794 22.99329 36093 ft 443 kts 321°
2026-05-06 09:59 37.70716 22.94666 36092 ft 443 kts 321°
2026-05-06 10:00 37.75642 22.89988 36094 ft 442 kts 321°
2026-05-06 10:00 37.80561 22.85309 36096 ft 441 kts 321°
2026-05-06 10:01 37.85431 22.80668 36094 ft 441 kts 321°
2026-05-06 10:01 37.90332 22.75988 36089 ft 442 kts 321°
2026-05-06 10:02 37.95243 22.71290 36090 ft 443 kts 321°
2026-05-06 10:02 38.00160 22.66570 36111 ft 443 kts 321°
2026-05-06 10:03 38.05075 22.61836 36105 ft 443 kts 321°
2026-05-06 10:03 38.09992 22.57112 36095 ft 443 kts 321°
2026-05-06 10:04 38.14908 22.52377 36089 ft 443 kts 321°
2026-05-06 10:04 38.19819 22.47638 36089 ft 443 kts 321°
2026-05-06 10:05 38.24727 22.42892 36099 ft 444 kts 321°
2026-05-06 10:05 38.29650 22.38123 36102 ft 445 kts 321°
2026-05-06 10:06 38.34570 22.33347 36094 ft 444 kts 321°
2026-05-06 10:06 38.39487 22.28569 36089 ft 444 kts 321°
2026-05-06 10:07 38.44399 22.23783 36090 ft 445 kts 321°
2026-05-06 10:07 38.49312 22.18987 36087 ft 444 kts 321°
2026-05-06 10:08 38.54188 22.14219 36092 ft 445 kts 321°
2026-05-06 10:08 38.59097 22.09413 36094 ft 445 kts 320°
2026-05-06 10:09 38.64019 22.04586 36093 ft 445 kts 320°
2026-05-06 10:09 38.68930 21.99757 36100 ft 446 kts 320°
2026-05-06 10:10 38.73844 21.94920 36091 ft 445 kts 320°
2026-05-06 10:10 38.78749 21.90081 36102 ft 445 kts 320°
2026-05-06 10:11 38.83652 21.85231 36105 ft 444 kts 320°
2026-05-06 10:11 38.88542 21.80384 36098 ft 444 kts 320°
2026-05-06 10:12 38.93438 21.75521 36105 ft 446 kts 320°
2026-05-06 10:12 38.98310 21.70662 36100 ft 447 kts 320°
2026-05-06 10:13 39.03212 21.65763 36103 ft 447 kts 320°
2026-05-06 10:13 39.08120 21.60857 36105 ft 447 kts 320°
2026-05-06 10:14 39.13024 21.55944 36104 ft 447 kts 320°
2026-05-06 10:14 39.17934 21.51015 36112 ft 447 kts 320°
2026-05-06 10:15 39.22023 21.46906 36089 ft 447 kts 320°
2026-05-06 10:15 39.26925 21.41972 36101 ft 447 kts 320°
2026-05-06 10:16 39.31819 21.37035 36115 ft 447 kts 320°
2026-05-06 10:16 39.36715 21.32083 36097 ft 446 kts 320°
2026-05-06 10:17 39.41598 21.27135 36111 ft 446 kts 320°
2026-05-06 10:17 39.46481 21.22179 36106 ft 445 kts 320°
2026-05-06 10:18 39.51352 21.17225 36110 ft 445 kts 320°
2026-05-06 10:18 39.56225 21.12261 36131 ft 446 kts 319°
2026-05-06 10:19 39.61106 21.07273 36125 ft 448 kts 320°
2026-05-06 10:19 39.65990 21.02270 36119 ft 447 kts 320°
2026-05-06 10:20 39.70866 20.97267 36122 ft 446 kts 320°
2026-05-06 10:20 39.75736 20.92259 36121 ft 447 kts 320°
2026-05-06 10:21 39.80575 20.87269 36121 ft 447 kts 319°
2026-05-06 10:21 39.85442 20.82238 36122 ft 447 kts 319°
2026-05-06 10:22 39.90306 20.77203 36115 ft 447 kts 319°
2026-05-06 10:22 39.95176 20.72158 36106 ft 447 kts 319°
2026-05-06 10:23 40.00038 20.67106 36109 ft 447 kts 319°
2026-05-06 10:23 40.04905 20.62022 36106 ft 447 kts 319°
2026-05-06 10:24 40.10281 20.57940 36104 ft 451 kts 334°
2026-05-06 10:24 40.16090 20.54784 36106 ft 452 kts 333°
2026-05-06 10:25 40.21821 20.51403 36103 ft 451 kts 333°
2026-05-06 10:25 40.27575 20.48095 36097 ft 452 kts 334°
2026-05-06 10:26 40.33353 20.44822 36101 ft 453 kts 334°
2026-05-06 10:26 40.39138 20.41527 36099 ft 454 kts 334°
2026-05-06 10:27 40.44889 20.38248 36100 ft 454 kts 334°
2026-05-06 10:27 40.50718 20.34923 36096 ft 454 kts 333°
2026-05-06 10:28 40.56465 20.31638 36097 ft 453 kts 333°
2026-05-06 10:28 40.62249 20.28324 36088 ft 453 kts 333°
2026-05-06 10:29 40.68028 20.25013 36101 ft 453 kts 333°
2026-05-06 10:29 40.73801 20.21696 36098 ft 453 kts 333°
2026-05-06 10:30 40.79580 20.18369 36089 ft 453 kts 333°
2026-05-06 10:30 40.85351 20.15039 36092 ft 453 kts 333°
2026-05-06 10:31 40.91125 20.11699 36095 ft 454 kts 333°
2026-05-06 10:31 40.96930 20.08338 36097 ft 456 kts 333°
2026-05-06 10:32 41.02744 20.04967 36090 ft 456 kts 333°
2026-05-06 10:32 41.08566 20.01583 36095 ft 456 kts 333°
2026-05-06 10:33 41.14384 19.98195 36090 ft 457 kts 333°
2026-05-06 10:33 41.20190 19.94808 36094 ft 456 kts 333°
2026-05-06 10:34 41.26000 19.91411 36097 ft 456 kts 333°
2026-05-06 10:34 41.31822 19.87999 36096 ft 457 kts 333°
2026-05-06 10:35 41.37650 19.84578 36094 ft 458 kts 333°
2026-05-06 10:35 41.43481 19.81149 36095 ft 458 kts 333°
2026-05-06 10:36 41.49276 19.77736 36094 ft 459 kts 333°
2026-05-06 10:36 41.55124 19.74282 36092 ft 459 kts 333°
2026-05-06 10:37 41.60971 19.70823 36093 ft 459 kts 333°
2026-05-06 10:37 41.66814 19.67358 36093 ft 459 kts 333°
2026-05-06 10:38 41.72657 19.63888 36100 ft 459 kts 333°
2026-05-06 10:38 41.78495 19.60414 36092 ft 459 kts 333°
2026-05-06 10:39 41.84325 19.56937 36093 ft 459 kts 333°
2026-05-06 10:39 41.90154 19.53453 36093 ft 458 kts 333°
2026-05-06 10:40 41.95986 19.49962 36100 ft 459 kts 333°
2026-05-06 10:40 42.01780 19.46487 36094 ft 458 kts 333°
2026-05-06 10:41 42.07598 19.42989 36094 ft 459 kts 333°
2026-05-06 10:41 42.13443 19.39467 36093 ft 460 kts 333°
2026-05-06 10:42 42.19297 19.35935 36080 ft 461 kts 333°
2026-05-06 10:42 42.25010 19.32070 36074 ft 458 kts 327°
2026-05-06 10:43 42.30517 19.27739 36073 ft 458 kts 327°
2026-05-06 10:44 42.38851 19.21391 36065 ft 458 kts 327°
2026-05-06 10:44 42.44407 19.17151 36069 ft 458 kts 327°
2026-05-06 10:45 42.49953 19.12902 36076 ft 458 kts 327°
2026-05-06 10:45 42.55499 19.08652 36077 ft 459 kts 327°
2026-05-06 10:46 42.61074 19.04370 36075 ft 460 kts 327°
2026-05-06 10:46 42.66647 19.00081 36075 ft 460 kts 327°
2026-05-06 10:47 42.72211 18.95789 36070 ft 460 kts 327°
2026-05-06 10:47 42.77772 18.91491 36070 ft 459 kts 327°
2026-05-06 10:48 42.83285 18.87222 36060 ft 460 kts 327°
2026-05-06 10:48 42.88844 18.82907 36053 ft 460 kts 327°
2026-05-06 10:49 42.94403 18.78584 36050 ft 459 kts 327°
2026-05-06 10:49 42.99955 18.74256 36046 ft 460 kts 327°
2026-05-06 10:50 43.05519 18.69910 36047 ft 461 kts 327°
2026-05-06 10:50 43.11087 18.65554 36036 ft 461 kts 326°
2026-05-06 10:51 43.16657 18.61186 36024 ft 461 kts 326°
2026-05-06 10:51 43.22219 18.56815 36031 ft 461 kts 326°
2026-05-06 10:52 43.27753 18.52457 36022 ft 460 kts 326°
2026-05-06 10:52 43.33324 18.48060 36017 ft 461 kts 326°
2026-05-06 10:53 43.38889 18.43659 36017 ft 461 kts 326°
2026-05-06 10:53 43.44448 18.39250 36024 ft 462 kts 326°
2026-05-06 10:54 43.50029 18.34817 36034 ft 463 kts 326°
2026-05-06 10:54 43.55602 18.30382 36011 ft 462 kts 326°
2026-05-06 10:55 43.61167 18.25942 35986 ft 461 kts 326°
2026-05-06 10:55 43.66723 18.21499 35983 ft 462 kts 326°
2026-05-06 10:56 43.72247 18.17075 35988 ft 462 kts 326°
2026-05-06 10:56 43.77802 18.12614 35989 ft 461 kts 326°
2026-05-06 10:57 43.83347 18.08152 35991 ft 461 kts 326°
2026-05-06 10:57 43.88888 18.03685 35983 ft 461 kts 326°
2026-05-06 10:58 43.94436 17.99200 35984 ft 461 kts 326°
2026-05-06 10:58 43.99984 17.94708 35981 ft 461 kts 326°
2026-05-06 10:59 44.05533 17.90203 35964 ft 462 kts 326°
2026-05-06 10:59 44.10151 17.86448 35983 ft 462 kts 326°
2026-05-06 11:00 44.15702 17.81926 35968 ft 462 kts 326°
2026-05-06 11:00 44.22148 17.76663 35974 ft 462 kts 325°
2026-05-06 11:01 44.26795 17.72855 35975 ft 462 kts 325°
2026-05-06 11:01 44.32346 17.68298 35967 ft 463 kts 325°
2026-05-06 11:02 44.37892 17.63738 35962 ft 462 kts 325°
2026-05-06 11:02 44.43435 17.59173 35956 ft 462 kts 325°
2026-05-06 11:03 44.48931 17.54638 35957 ft 462 kts 325°
2026-05-06 11:03 44.54470 17.50054 35954 ft 462 kts 324°
2026-05-06 11:04 44.60009 17.45457 35948 ft 463 kts 324°
2026-05-06 11:04 44.65550 17.40851 35945 ft 462 kts 324°
2026-05-06 11:05 44.71078 17.36245 35941 ft 462 kts 324°
2026-05-06 11:05 44.76602 17.31629 35931 ft 462 kts 324°
2026-05-06 11:06 44.82132 17.26999 35933 ft 464 kts 324°
2026-05-06 11:06 44.87681 17.22347 35936 ft 464 kts 324°
2026-05-06 11:07 44.93222 17.17691 35939 ft 463 kts 324°
2026-05-06 11:07 44.98755 17.13028 35939 ft 463 kts 324°
2026-05-06 11:08 45.04285 17.08356 35948 ft 463 kts 324°
2026-05-06 11:08 45.09790 17.03695 35939 ft 465 kts 324°
2026-05-06 11:09 45.15346 16.98984 35934 ft 465 kts 324°
2026-05-06 11:09 45.20894 16.94268 35932 ft 465 kts 323°
2026-05-06 11:10 45.26442 16.89540 35934 ft 465 kts 323°
2026-05-06 11:10 45.31990 16.84800 35962 ft 465 kts 323°
2026-05-06 11:11 45.37534 16.80054 35938 ft 465 kts 323°
2026-05-06 11:11 45.43077 16.75297 35936 ft 465 kts 323°
2026-05-06 11:12 45.48623 16.70526 35934 ft 465 kts 323°
2026-05-06 11:12 45.54162 16.65751 35930 ft 465 kts 323°
2026-05-06 11:13 45.59695 16.60968 35948 ft 465 kts 323°
2026-05-06 11:13 45.65197 16.56203 35932 ft 466 kts 323°
2026-05-06 11:14 45.70739 16.51391 35944 ft 466 kts 323°
2026-05-06 11:14 45.76281 16.46570 35947 ft 466 kts 323°
2026-05-06 11:15 45.81811 16.41747 35945 ft 465 kts 323°
2026-05-06 11:15 45.87331 16.36920 35944 ft 464 kts 323°
2026-05-06 11:16 45.92838 16.32091 35947 ft 464 kts 323°
2026-05-06 11:16 45.98350 16.27250 35942 ft 464 kts 323°
2026-05-06 11:17 46.03856 16.22401 35939 ft 464 kts 323°
2026-05-06 11:17 46.09356 16.17548 35933 ft 463 kts 323°
2026-05-06 11:18 46.14843 16.12693 35934 ft 463 kts 323°
2026-05-06 11:18 46.20326 16.07822 35929 ft 462 kts 323°
2026-05-06 11:19 46.25768 16.02986 35938 ft 462 kts 323°
2026-05-06 11:19 46.31224 15.98075 35926 ft 461 kts 321°
2026-05-06 11:20 46.36487 15.92779 35920 ft 459 kts 319°
2026-05-06 11:20 46.41691 15.87407 35929 ft 460 kts 320°
2026-05-06 11:21 46.47008 15.82194 35930 ft 461 kts 321°
2026-05-06 11:21 46.52337 15.76996 35932 ft 462 kts 321°
2026-05-06 11:22 46.57681 15.71772 35932 ft 464 kts 321°
2026-05-06 11:22 46.63035 15.66539 35924 ft 464 kts 321°
2026-05-06 11:23 46.68393 15.61289 35917 ft 464 kts 321°
2026-05-06 11:23 46.73744 15.56035 35893 ft 463 kts 320°
2026-05-06 11:24 46.79083 15.50776 35882 ft 463 kts 320°
2026-05-06 11:24 46.84432 15.45496 35877 ft 463 kts 320°
2026-05-06 11:25 46.89733 15.40252 35874 ft 463 kts 320°
2026-05-06 11:25 46.95061 15.34968 35877 ft 463 kts 320°
2026-05-06 11:26 47.00394 15.29667 35883 ft 464 kts 320°
2026-05-06 11:26 47.05743 15.24335 35885 ft 464 kts 320°
2026-05-06 11:27 47.11086 15.18993 35868 ft 465 kts 320°
2026-05-06 11:27 47.16432 15.13640 35863 ft 465 kts 320°
2026-05-06 11:28 47.21777 15.08281 35853 ft 465 kts 319°
2026-05-06 11:28 47.27098 15.02923 35870 ft 466 kts 319°
2026-05-06 11:29 47.32461 14.97515 35869 ft 468 kts 319°
2026-05-06 11:29 47.37841 14.92077 35868 ft 469 kts 319°
2026-05-06 11:30 47.43216 14.86619 35861 ft 469 kts 319°
2026-05-06 11:30 47.48595 14.81149 35852 ft 469 kts 319°
2026-05-06 11:31 47.53982 14.75660 35859 ft 471 kts 319°
2026-05-06 11:31 47.59397 14.70139 35816 ft 472 kts 319°
2026-05-06 11:32 47.64761 14.64636 35810 ft 472 kts 319°
2026-05-06 11:32 47.70172 14.59086 35806 ft 473 kts 319°
2026-05-06 11:33 47.75577 14.53517 35804 ft 473 kts 319°
2026-05-06 11:33 47.80978 14.47943 35826 ft 473 kts 319°
2026-05-06 11:34 47.86395 14.42347 35780 ft 474 kts 318°
2026-05-06 11:34 47.91804 14.36734 35782 ft 473 kts 318°
2026-05-06 11:35 47.97213 14.31102 35791 ft 474 kts 318°
2026-05-06 11:35 48.02626 14.25453 35793 ft 474 kts 318°
2026-05-06 11:36 48.08039 14.19794 35793 ft 474 kts 318°
2026-05-06 11:36 48.13448 14.14123 35800 ft 475 kts 318°
2026-05-06 11:37 48.18861 14.08432 35796 ft 475 kts 318°
2026-05-06 11:37 48.24241 14.02762 35787 ft 475 kts 319°
2026-05-06 11:38 48.29647 13.97054 35788 ft 474 kts 318°
2026-05-06 11:38 48.35041 13.91341 35791 ft 474 kts 318°
2026-05-06 11:39 48.40434 13.85610 35799 ft 475 kts 318°
2026-05-06 11:39 48.45842 13.79851 35790 ft 475 kts 318°
2026-05-06 11:40 48.51243 13.74086 35796 ft 477 kts 318°
2026-05-06 11:40 48.56657 13.68289 35794 ft 477 kts 318°
2026-05-06 11:41 48.62072 13.62475 35788 ft 477 kts 318°
2026-05-06 11:41 48.67086 13.56065 35813 ft 468 kts 308°
2026-05-06 11:42 48.71610 13.48983 35793 ft 468 kts 308°
2026-05-06 11:42 48.76247 13.42035 35795 ft 470 kts 309°
2026-05-06 11:43 48.80879 13.35115 35791 ft 470 kts 309°
2026-05-06 11:43 48.85521 13.28112 35787 ft 470 kts 308°
2026-05-06 11:44 48.92459 13.17577 35799 ft 471 kts 308°
2026-05-06 11:44 48.97095 13.10493 35789 ft 472 kts 308°
2026-05-06 11:45 49.01741 13.03410 35784 ft 473 kts 308°
2026-05-06 11:45 49.05601 12.97516 35790 ft 473 kts 308°
2026-05-06 11:46 49.10240 12.90414 35791 ft 472 kts 308°
2026-05-06 11:46 49.14878 12.83293 35793 ft 472 kts 308°
2026-05-06 11:47 49.19499 12.76147 35792 ft 472 kts 308°
2026-05-06 11:47 49.24102 12.68978 35785 ft 472 kts 308°
2026-05-06 11:48 49.28722 12.61812 35798 ft 472 kts 308°
2026-05-06 11:48 49.32734 12.54142 35767 ft 454 kts 289°
2026-05-06 11:49 49.35026 12.45181 35809 ft 455 kts 287°
2026-05-06 11:49 49.37572 12.36263 35789 ft 456 kts 287°
2026-05-06 11:50 49.39893 12.27244 35787 ft 454 kts 285°
2026-05-06 11:50 49.42057 12.18144 35781 ft 454 kts 284°
2026-05-06 11:51 49.44211 12.09037 35791 ft 454 kts 284°
2026-05-06 11:51 49.46374 11.99895 35783 ft 456 kts 288°
2026-05-06 11:52 49.49795 11.91552 35801 ft 467 kts 301°
2026-05-06 11:52 49.53515 11.83370 35789 ft 465 kts 298°
2026-05-06 11:53 49.57179 11.75139 35789 ft 467 kts 300°
2026-05-06 11:53 49.61030 11.67044 35805 ft 469 kts 301°
2026-05-06 11:54 49.64902 11.58967 35785 ft 468 kts 301°
2026-05-06 11:54 49.68768 11.50881 35782 ft 468 kts 301°
2026-05-06 11:55 49.72626 11.42803 35785 ft 467 kts 301°
2026-05-06 11:55 49.76486 11.34703 35802 ft 467 kts 301°
2026-05-06 11:56 49.80314 11.26651 35788 ft 468 kts 301°
2026-05-06 11:56 49.84168 11.18513 35784 ft 468 kts 301°
2026-05-06 11:57 49.88012 11.10372 35784 ft 468 kts 301°
2026-05-06 11:57 49.91864 11.02190 35786 ft 469 kts 301°
2026-05-06 11:58 49.95703 10.94008 35781 ft 470 kts 301°
2026-05-06 11:58 49.99562 10.85758 35779 ft 472 kts 301°
2026-05-06 11:59 50.03423 10.77484 35775 ft 473 kts 301°
2026-05-06 11:59 50.07257 10.69242 35778 ft 473 kts 301°
2026-05-06 12:00 50.11108 10.60936 35773 ft 473 kts 300°
2026-05-06 12:00 50.14955 10.52608 35783 ft 475 kts 301°
2026-05-06 12:01 50.18821 10.44214 35781 ft 476 kts 301°
2026-05-06 12:01 50.22649 10.35786 35773 ft 475 kts 300°
2026-05-06 12:02 50.26344 10.27242 35765 ft 475 kts 299°
2026-05-06 12:02 50.30083 10.18735 35764 ft 475 kts 300°
2026-05-06 12:03 50.33861 10.10264 35755 ft 475 kts 300°
2026-05-06 12:03 50.37641 10.01769 35751 ft 475 kts 300°
2026-05-06 12:04 50.41414 9.93267 35750 ft 475 kts 300°
2026-05-06 12:04 50.45182 9.84754 35769 ft 475 kts 300°
2026-05-06 12:05 50.48912 9.76299 35771 ft 474 kts 301°
2026-05-06 12:05 50.52672 9.67752 35752 ft 476 kts 301°
2026-05-06 12:06 50.55996 9.60172 35754 ft 476 kts 301°
2026-05-06 12:06 50.59745 9.51594 35752 ft 476 kts 301°
2026-05-06 12:07 50.63489 9.43002 35752 ft 476 kts 301°
2026-05-06 12:07 50.67231 9.34386 35774 ft 476 kts 301°
2026-05-06 12:08 50.70966 9.25756 35757 ft 476 kts 301°
2026-05-06 12:08 50.74699 9.17106 35591 ft 479 kts 301°
2026-05-06 12:09 50.76561 9.12782 35022 ft 471 kts 300°
2026-05-06 12:09 50.78381 9.08557 34479 ft 463 kts 300°
2026-05-06 12:09 50.80188 9.04347 33976 ft 461 kts 300°
2026-05-06 12:09 50.81980 9.00147 33409 ft 460 kts 299°
2026-05-06 12:10 50.83745 8.95933 32799 ft 460 kts 301°
2026-05-06 12:10 50.85643 8.91854 32214 ft 461 kts 304°
2026-05-06 12:10 50.87646 8.87887 31641 ft 462 kts 305°
2026-05-06 12:10 50.89669 8.83932 31081 ft 462 kts 305°
2026-05-06 12:11 50.91671 8.79956 30529 ft 461 kts 304°
2026-05-06 12:11 50.93653 8.75964 30005 ft 461 kts 304°
2026-05-06 12:11 50.95632 8.71972 29377 ft 461 kts 304°
2026-05-06 12:11 50.97624 8.67970 28767 ft 461 kts 304°
2026-05-06 12:12 50.99603 8.64054 28154 ft 463 kts 307°
2026-05-06 12:12 51.01966 8.60508 27498 ft 470 kts 320°
2026-05-06 12:12 51.04690 8.57590 26941 ft 474 kts 324°
2026-05-06 12:12 51.07461 8.54709 26348 ft 476 kts 322°
2026-05-06 12:13 51.10153 8.51647 25788 ft 476 kts 322°
2026-05-06 12:13 51.12828 8.48517 25211 ft 477 kts 323°
2026-05-06 12:13 51.15547 8.45469 24660 ft 479 kts 324°
2026-05-06 12:13 51.18274 8.42570 24127 ft 459 kts 325°
2026-05-06 12:14 51.20883 8.39871 23619 ft 435 kts 325°
2026-05-06 12:14 51.23370 8.37289 23127 ft 421 kts 325°
2026-05-06 12:14 51.25814 8.34718 22562 ft 420 kts 324°
2026-05-06 12:14 51.28242 8.32150 22033 ft 418 kts 325°
2026-05-06 12:15 51.30653 8.29597 21503 ft 414 kts 325°
2026-05-06 12:15 51.33050 8.27080 20991 ft 411 kts 325°
2026-05-06 12:15 51.35430 8.24586 20492 ft 408 kts 324°
2026-05-06 12:15 51.37792 8.22092 20003 ft 405 kts 324°
2026-05-06 12:16 51.40129 8.19611 19539 ft 402 kts 324°
2026-05-06 12:16 51.42458 8.17141 19065 ft 400 kts 324°
2026-05-06 12:16 51.44738 8.14721 18632 ft 397 kts 322°
2026-05-06 12:16 51.46802 8.11858 18148 ft 389 kts 306°
2026-05-06 12:17 51.48136 8.08192 17587 ft 378 kts 286°
2026-05-06 12:17 51.48792 8.04143 17157 ft 374 kts 279°
2026-05-06 12:17 51.49227 8.00041 16742 ft 371 kts 276°
2026-05-06 12:17 51.49560 7.95951 16280 ft 369 kts 275°
2026-05-06 12:18 51.49846 7.91878 15837 ft 366 kts 274°
2026-05-06 12:18 51.49904 7.87816 15377 ft 362 kts 264°
2026-05-06 12:18 51.49552 7.83844 14967 ft 358 kts 257°
2026-05-06 12:18 51.49004 7.79957 14554 ft 356 kts 255°
2026-05-06 12:19 51.48342 7.76140 14138 ft 354 kts 252°
2026-05-06 12:19 51.47528 7.72431 13734 ft 352 kts 247°
2026-05-06 12:19 51.46552 7.68837 13309 ft 350 kts 245°
2026-05-06 12:19 51.45584 7.65325 12882 ft 347 kts 245°
2026-05-06 12:20 51.44645 7.61725 12444 ft 345 kts 247°
2026-05-06 12:20 51.43797 7.58240 12030 ft 343 kts 248°
2026-05-06 12:20 51.42983 7.54664 11611 ft 337 kts 249°
2026-05-06 12:20 51.42243 7.51216 11208 ft 318 kts 250°
2026-05-06 12:21 51.41574 7.47939 10829 ft 301 kts 251°
2026-05-06 12:21 51.40956 7.44814 10483 ft 287 kts 251°
2026-05-06 12:21 51.40380 7.41826 10171 ft 276 kts 251°
2026-05-06 12:21 51.39825 7.38903 9854 ft 274 kts 252°
2026-05-06 12:22 51.39274 7.35971 9532 ft 274 kts 252°
2026-05-06 12:22 51.38731 7.33052 9170 ft 274 kts 252°
2026-05-06 12:22 51.38193 7.30123 8828 ft 274 kts 252°
2026-05-06 12:22 51.37659 7.27199 8492 ft 273 kts 252°
2026-05-06 12:23 51.37134 7.24313 8168 ft 273 kts 253°
2026-05-06 12:23 51.36610 7.21417 7796 ft 269 kts 253°
2026-05-06 12:23 51.36081 7.18493 7556 ft 272 kts 253°
2026-05-06 12:23 51.35554 7.15581 7230 ft 274 kts 253°
2026-05-06 12:24 51.35029 7.12666 6917 ft 272 kts 253°
2026-05-06 12:24 51.34507 7.09767 6591 ft 270 kts 253°
2026-05-06 12:24 51.33988 7.06888 6272 ft 270 kts 253°
2026-05-06 12:24 51.33470 7.04004 5958 ft 270 kts 253°
2026-05-06 12:25 51.32952 7.01122 5626 ft 269 kts 254°
2026-05-06 12:25 51.32437 6.98251 5297 ft 268 kts 254°
2026-05-06 12:25 51.31928 6.95397 4982 ft 266 kts 255°
2026-05-06 12:25 51.31495 6.92512 4651 ft 265 kts 257°
2026-05-06 12:26 51.31072 6.89660 4318 ft 264 kts 257°
2026-05-06 12:26 51.30599 6.86819 3994 ft 264 kts 255°
2026-05-06 12:26 51.30078 6.84004 3667 ft 264 kts 254°
2026-05-06 12:26 51.29528 6.81243 3354 ft 264 kts 253°
2026-05-06 12:27 51.28943 6.78438 3025 ft 264 kts 253°
2026-05-06 12:27 51.28378 6.75666 2825 ft 260 kts 255°
2026-05-06 12:27 51.27827 6.72977 2921 ft 244 kts 253°
2026-05-06 12:27 51.27330 6.70549 2996 ft 214 kts 255°
2026-05-06 12:28 51.26880 6.68307 2950 ft 211 kts 254°
2026-05-06 12:28 51.26427 6.66090 2984 ft 211 kts 255°
2026-05-06 12:28 51.25970 6.63851 2986 ft 211 kts 255°
2026-05-06 12:28 51.25517 6.61630 2970 ft 210 kts 254°
2026-05-06 12:29 51.25063 6.59402 2975 ft 211 kts 254°
2026-05-06 12:29 51.24625 6.57252 2974 ft 211 kts 255°
2026-05-06 12:29 51.24173 6.55031 2975 ft 211 kts 255°
2026-05-06 12:29 51.23719 6.52812 2978 ft 211 kts 255°
2026-05-06 12:30 51.23262 6.50582 2973 ft 211 kts 255°
2026-05-06 12:30 51.22746 6.48381 2962 ft 215 kts 245°
2026-05-06 12:30 51.21828 6.46501 2975 ft 217 kts 225°
2026-05-06 12:30 51.20580 6.45156 2973 ft 219 kts 205°
2026-05-06 12:31 51.19090 6.44640 2969 ft 220 kts 182°
2026-05-06 12:31 51.17593 6.45031 2956 ft 219 kts 156°
2026-05-06 12:31 51.16464 6.46508 2956 ft 202 kts 120°
2026-05-06 12:31 51.16087 6.48544 3023 ft 190 kts 92°
2026-05-06 12:32 51.16146 6.50638 3095 ft 189 kts 78°
2026-05-06 12:32 51.16561 6.52564 3092 ft 182 kts 50°
2026-05-06 12:32 51.17489 6.53849 3395 ft 177 kts 38°
2026-05-06 12:32 51.18388 6.55256 3407 ft 184 kts 46°
2026-05-06 12:33 51.18926 6.56292 3197 ft 183 kts 49°
2026-05-06 12:33 51.19691 6.57887 2910 ft 180 kts 50°
2026-05-06 12:33 51.20443 6.59468 2660 ft 178 kts 50°
2026-05-06 12:33 51.21166 6.60986 2452 ft 165 kts 49°
2026-05-06 12:34 51.22060 6.62855 2148 ft 156 kts 49°
2026-05-06 12:34 51.22491 6.63754 2007 ft 151 kts 49°
2026-05-06 12:34 51.23114 6.65060 1817 ft 149 kts 50°
2026-05-06 12:34 51.23760 6.66406 1634 ft 152 kts 49°
2026-05-06 12:35 51.24400 6.67750 1401 ft 152 kts 50°
2026-05-06 12:35 51.25032 6.69073 1189 ft 153 kts 49°
2026-05-06 12:35 51.25681 6.70433 958 ft 154 kts 50°
2026-05-06 12:35 51.26332 6.71793 748 ft 154 kts 49°
2026-05-06 12:36 51.26971 6.73141 554 ft 145 kts 49°
2026-05-06 12:36 51.27554 6.74376 357 ft 139 kts 48°
2026-05-06 12:36 51.28151 6.75599 175 ft 138 kts 49°
2026-05-06 12:36 51.28673 6.76691 133 ft 102 kts 52°
2026-05-06 12:37 51.29002 6.77382 134 ft 38 kts 52°
2026-05-06 12:37 51.29030 6.77511 134 ft 9 kts 112°
2026-05-06 12:37 51.28980 6.77599 133 ft 12 kts 141°
2026-05-06 12:37 51.28916 6.77659 134 ft 9 kts 179°
2026-05-06 12:38 51.28877 6.77605 135 ft 8 kts 239°
2026-05-06 12:38 51.28846 6.77531 134 ft 8 kts 235°
2026-05-06 12:38 51.28814 6.77460 134 ft 11 kts 234°
2026-05-06 12:38 51.28764 6.77353 134 ft 15 kts 233°
2026-05-06 12:39 51.28702 6.77222 134 ft 18 kts 233°
2026-05-06 12:39 51.28644 6.77099 134 ft 21 kts 233°
2026-05-06 12:39 51.28561 6.76929 134 ft 23 kts 232°
2026-05-06 12:40 51.28520 6.76846 133 ft 24 kts 233°
2026-05-06 12:40 51.28507 6.76817 128 ft 24 kts 233°
2026-05-06 12:40 51.28506 6.76815 127 ft 24 kts 233°
2026-05-06 12:40 51.28412 6.76618 125 ft 24 kts 231°